Terminal Aerodrome Forecast
Issued by NWS Portland, OR

Home | Current Version | Previous Version | Text Only | Print | Product List | Glossary On
Versions: 1 2 3 4 5 6 7 8 9 10 11 12 13 14 15
000
FTUS46 KPQR 232323
TAFSLE
TAF
KSLE 232323Z 2400/2424 01014G23KT P6SM SKC
     FM240500 02003KT P6SM SKC
     FM241700 03012G22KT P6SM SKC=

USA.gov is the U.S. government's official web portal to all federal, state and local government web resources and services.